Weather History for Edinburgh Airport, United Kingdom

Change the Weather History Date:

Friday, December 7, 2012

  Actual Average Record
Temperature  
Mean Temperature 35 °F -  
Max Temperature 42 °F 44 °F 55 °F (1997)
Min Temperature 28 °F 34 °F 3 °F (2010)
Degree Days  
Heating Degree Days 30    
Moisture  
Dew Point 32 °F    
Average Humidity 82    
Maximum Humidity 100    
Minimum Humidity 70    
Precipitation  
Precipitation 0.00 in 0.08 in - ()
Sea Level Pressure  
Sea Level Pressure 29.73 in    
Wind  
Wind Speed 5 mph ()    
Max Wind Speed 12 mph    
Max Gust Speed -    
Visibility 6.2 miles    
Events Rain , Snow    
Averages and records for this station are not official NWS values.
T = Trace of Precipitation, MM = Missing Value Source: Averaged Metar Reports

Daily Weather History Graph

Daily Weather History Graph

Search for Another Location

Airport:

Trip Planner

Search our weather history database for the weather conditions in past years. The results will help you decide how hot, cold, wet, or windy it might be!

Date:

Astronomy

Dec. 07, 2012 Rise Set
Actual Time 8:29 AM GMT 3:40 PM GMT
Civil Twilight 7:43 AM GMT 4:26 PM GMT
Nautical Twilight 6:54 AM GMT 5:15 PM GMT
Astronomical Twilight 6:09 AM GMT 6:00 PM GMT
Moon 12:27 AM GMT (12/7) 12:29 PM GMT (12/7)
Length of Visible Light 8h 43m
Length of Day
7h 10m
Last Quarter, 41% of the Moon is Illuminated
Dec 7
Last Quarter
Dec 13
New
Dec 20
First Quarter
Dec 28
Full
Jan 5
Last Quarter

Hourly Weather History & Observations

Time (GMT) Temp. Windchill Dew Point Humidity Pressure Visibility Wind Dir Wind Speed Gust Speed Precip Events Conditions
12:20 AM 33.8 °F 29.6 °F 33.8 °F 100% 29.36 in 6.2 mi NNW 4.6 mph - N/A Rain , Snow Light Rain
12:50 AM 33.8 °F - 33.8 °F 100% 29.36 in 6.2 mi Variable 2.3 mph - N/A Rain Light Rain
1:20 AM 35.6 °F 32.8 °F 33.8 °F 93% 29.39 in 6.2 mi Variable 3.5 mph - N/A   Mostly Cloudy
1:50 AM 33.8 °F - 33.8 °F 100% 29.42 in 6.2 mi Variable 2.3 mph - N/A   Scattered Clouds
2:20 AM 33.8 °F 29.6 °F 32.0 °F 93% 29.42 in 6.2 mi WSW 4.6 mph - N/A   Partly Cloudy
2:50 AM 32.0 °F 26.4 °F 32.0 °F 100% 29.44 in 6.2 mi WSW 5.8 mph - N/A   Unknown
3:20 AM 35.6 °F 31.7 °F 32.0 °F 87% 29.47 in 6.2 mi WNW 4.6 mph - N/A   Unknown
3:50 AM 33.8 °F 29.6 °F 30.2 °F 87% 29.47 in 6.2 mi SW 4.6 mph - N/A   Unknown
4:20 AM 33.8 °F 29.6 °F 30.2 °F 87% 29.50 in - SW 4.6 mph - N/A   Clear
4:50 AM 33.8 °F 29.6 °F 30.2 °F 87% 29.50 in - West 4.6 mph - N/A   Clear
5:20 AM 30.2 °F 22.6 °F 26.6 °F 86% 29.50 in - WSW 8.1 mph - N/A   Clear
5:50 AM 28.4 °F 21.2 °F 26.6 °F 93% 29.50 in 6.2 mi WSW 6.9 mph - N/A   Partly Cloudy
6:20 AM 32.0 °F 26.4 °F 30.2 °F 93% 29.53 in - West 5.8 mph - N/A   Clear
6:50 AM 32.0 °F 25.6 °F 28.4 °F 87% 29.53 in - WSW 6.9 mph - N/A   Clear
7:20 AM 30.2 °F 24.3 °F 28.4 °F 93% 29.53 in - SSW 5.8 mph - N/A   Clear
7:50 AM 33.8 °F 28.6 °F 28.4 °F 81% 29.53 in 6.2 mi WSW 5.8 mph - N/A   Partly Cloudy
8:20 AM 33.8 °F 28.6 °F 30.2 °F 87% 29.56 in 6.2 mi WSW 5.8 mph - N/A   Partly Cloudy
8:50 AM 35.6 °F 29.2 °F 32.0 °F 87% 29.59 in 6.2 mi SW 8.1 mph - N/A   Partly Cloudy
9:20 AM 37.4 °F 31.4 °F 32.0 °F 81% 29.59 in 6.2 mi WSW 8.1 mph - N/A   Scattered Clouds
9:50 AM 39.2 °F 35.0 °F 32.0 °F 75% 29.62 in 6.2 mi West 5.8 mph - N/A   Scattered Clouds
10:20 AM 39.2 °F 35.0 °F 33.8 °F 81% 29.65 in 6.2 mi WNW 5.8 mph - N/A   Scattered Clouds
10:50 AM 41.0 °F 35.2 °F 35.6 °F 81% 29.65 in 6.2 mi NNW 9.2 mph - N/A   Mostly Cloudy
11:20 AM 41.0 °F 36.4 °F 35.6 °F 81% 29.68 in 6.2 mi NW 6.9 mph - N/A   Mostly Cloudy
11:50 AM 42.8 °F 37.5 °F 35.6 °F 76% 29.68 in 6.2 mi NNW 9.2 mph - N/A   Mostly Cloudy
12:20 PM 42.8 °F 37.0 °F 35.6 °F 76% 29.71 in 6.2 mi NNW 10.4 mph - N/A   Mostly Cloudy
12:50 PM 42.8 °F 37.5 °F 35.6 °F 76% 29.71 in 6.2 mi NNW 9.2 mph - N/A   Scattered Clouds
1:20 PM 42.8 °F 38.0 °F 35.6 °F 76% 29.74 in 6.2 mi NW 8.1 mph - N/A   Scattered Clouds
1:50 PM 42.8 °F 38.6 °F 35.6 °F 76% 29.77 in 6.2 mi NW 6.9 mph - N/A   Mostly Cloudy
2:20 PM 42.8 °F 38.0 °F 33.8 °F 70% 29.80 in 6.2 mi NW 8.1 mph - N/A   Mostly Cloudy
2:50 PM 42.8 °F 37.5 °F 33.8 °F 70% 29.80 in 6.2 mi NNW 9.2 mph - N/A   Mostly Cloudy
3:20 PM 42.8 °F 36.6 °F 33.8 °F 70% 29.83 in 6.2 mi NNW 11.5 mph - N/A   Mostly Cloudy
3:50 PM 42.8 °F 37.0 °F 33.8 °F 70% 29.86 in 6.2 mi NW 10.4 mph - N/A   Mostly Cloudy
4:20 PM 41.0 °F 34.7 °F 33.8 °F 76% 29.89 in 6.2 mi NNW 10.4 mph - N/A   Mostly Cloudy
4:50 PM 41.0 °F 35.2 °F 33.8 °F 76% 29.89 in 6.2 mi NNW 9.2 mph - N/A   Scattered Clouds
5:20 PM 39.2 °F 34.2 °F 32.0 °F 75% 29.92 in 6.2 mi NNW 6.9 mph - N/A   Scattered Clouds
5:50 PM 39.2 °F 35.9 °F 32.0 °F 75% 29.95 in - WNW 4.6 mph - N/A   Clear
6:20 PM 39.2 °F 35.9 °F 32.0 °F 75% 29.98 in - NW 4.6 mph - N/A   Clear
6:50 PM 39.2 °F 35.0 °F 32.0 °F 75% 29.98 in - NW 5.8 mph - N/A   Clear
7:20 PM 39.2 °F 35.0 °F 32.0 °F 75% 30.01 in 6.2 mi West 5.8 mph - N/A   Partly Cloudy
7:50 PM 39.2 °F 37.0 °F 32.0 °F 75% 30.01 in - Variable 3.5 mph - N/A   Clear
8:20 PM 39.2 °F 37.0 °F 30.2 °F 70% 30.04 in - Variable 3.5 mph - N/A   Clear
8:50 PM 37.4 °F 34.9 °F 30.2 °F 75% 30.04 in - Variable 3.5 mph - N/A   Clear
9:20 PM 35.6 °F - 30.2 °F 81% 30.06 in - Variable 2.3 mph - N/A   Clear
9:50 PM 37.4 °F 32.1 °F 32.0 °F 81% 30.06 in - West 6.9 mph - N/A   Clear
10:20 PM 37.4 °F - 32.0 °F 81% 30.06 in - Variable 2.3 mph - N/A   Clear
10:50 PM 35.6 °F - 30.2 °F 81% 30.09 in 6.2 mi Variable 2.3 mph - N/A   Partly Cloudy
11:20 PM 32.0 °F 27.5 °F 28.4 °F 87% 30.09 in 6.2 mi West 4.6 mph - N/A   Partly Cloudy
11:50 PM 32.0 °F 24.8 °F 28.4 °F 87% 30.09 in 6.2 mi WSW 8.1 mph - N/A   Partly Cloudy